Find Starlink 5519

NORAD ID: 57223 Int'l Des: 2023-094 Owner: SPXS Country: US Constellation: starlink operational
LEOCIRCULAR

現在のビュー

3D地球を読み込み中...

About Starlink 5519

Starlink 5519 (NORAD 57223) is a starlink constellation satellite (v1.5) launched Jul 7, 2023 by SPXS of US. It operates in LEO, CIRCULAR orbit with a mass of 305.00 kg.

Starlink 5519について

説明を読み込み中...

次回通過

Passes for default location (London). Set your location on the main map for personalized predictions.

高度履歴

Loading altitude history...

軌道要素

1 57223U 23094F 26166.80541421 -.00000314 00000-0 -18864-5 0 9995
2 57223 43.0034 199.8057 0001038 275.4896 84.5837 15.27574715162083
Epoch: Jun 15, 2026 • Age: 26 hours

現在のステータス

高度 495.6 km
速度 7.62 km/s
衛星直下点 -42.98°S, 119.67°W
打ち上げ日 Jul 7, 2023
運用期間 2.9 years
タイプ internet

技術仕様

分類 Payload
質量 305.00 kg
乾燥質量 290.00 kg
総質量 305.00 kg
長さ 0.20 m
直径 2.80 m
スパン 9.00 m
形状 Box + pan
製造者 SPXS
バスタイプ Starlink
フェーズステータス In Orbit
所有者/国 SPXS/US

Most Searched